This demonstration page uses our WeatherBlox Daily Observations layout. Learn more.

Left ArrowRight Arrow

Hourly Observations for December 27, 2021

Temp ( °F °C ) Dew Point ( °F °C ) Humidity (%) Winds ( mph kmh ) Pressure ( in mb ) Visibility ( mi km ) Precip ( " mm )
12:59 am 00:59 Partly Cloudy 49 9.4 43 6.1 80 80 NE 7 11 30.11 1020 10 16 0.00 0.00
1:59 am 01:59 Mostly Clear 49 9.4 42 5.6 77 77 NE 8 13 30.12 1020 10 16 0.00 0.00
2:59 am 02:59 Clear 48 8.9 41 5 77 77 NE 8 13 30.12 1020 10 16 0.00 0.00
3:59 am 03:59 Partly Cloudy 48 8.9 38 3.3 68 68 NE 8 13 30.11 1020 10 16 0.00 0.00
4:59 am 04:59 Cloudy 47 8.3 37 2.8 69 69 NE 8 13 30.09 1019 10 16 0.00 0.00
5:59 am 05:59 Mostly Cloudy 45 7.2 38 3.3 77 77 E 5 7 30.08 1019 10 16 0.00 0.00
6:59 am 06:59 Clear 45 7.2 40 4.4 83 83 NE 6 9 30.10 1019 10 16 0.00 0.00
7:59 am 07:59 Mostly Cloudy 47 8.3 42 5.6 83 83 NE 7 11 30.11 1020 10 16 0.00 0.00
8:59 am 08:59 Mostly Cloudy 48 8.9 44 6.7 86 86 ENE 10 17 30.09 1019 10 16 0.00 0.00
9:59 am 09:59 Mostly Cloudy 49 9.4 46 7.8 90 90 ENE 7 11 30.09 1019 9 14 0.00 0.00
10:59 am 10:59 Sunny 53 11.7 45 7.2 74 74 SE 9 15 30.02 1017 10 16 0.00 0.00
11:59 am 11:59 Cloudy 54 12.2 44 6.7 69 69 VRB 5 7 29.99 1016 10 16 0.00 0.00
12:59 pm 12:59 Cloudy 56 13.3 43 6.1 62 62 SE 5 7 29.98 1015 10 16 0.00 0.00
1:59 pm 13:59 Cloudy 56 13.3 44 6.7 65 65 S 8 13 29.95 1014 10 16 0.00 0.00
2:06 pm 14:06 Cloudy 56 13.3 44 6.7 65 65 S 6 9 29.94 1014 10 16 0.00 0.00
2:29 pm 14:29 Cloudy 56 13.3 44 6.7 65 65 SSE 8 13 29.91 1013 10 16 0.00 0.00
2:59 pm 14:59 Mostly Cloudy 57 13.9 45 7.2 64 64 VRB 3 6 29.91 1013 10 16 0.00 0.00
3:59 pm 15:59 Mostly Cloudy 56 13.3 48 8.9 75 75 NNE 6 9 29.91 1013 10 16 0.00 0.00
4:59 pm 16:59 Mostly Cloudy 52 11.1 49 9.4 89 89 E 5 7 29.89 1012 10 16 0.00 0.00
5:59 pm 17:59 Mostly Cloudy 53 11.7 50 10 89 89 ENE 3 6 29.89 1012 10 16 0.00 0.00
6:59 pm 18:59 Mostly Cloudy 51 10.6 49 9.4 92 92 Calm 29.88 1012 10 16 0.00 0.00
7:59 pm 19:59 Mostly Cloudy 50 10 49 9.4 96 96 Calm 29.88 1012 9 14 0.00 0.00
8:59 pm 20:59 Mostly Cloudy 48 8.9 48 8.9 100 100 Calm 29.85 1011 9 14 0.00 0.00
9:59 pm 21:59 Cloudy 50 10 50 10 100 100 Calm 29.85 1011 10 16 0.00 0.00
10:59 pm 22:59 Cloudy 53 11.7 50 10 89 89 SW 3 6 29.83 1010 10 16 0.00 0.00
11:59 pm 23:59 Cloudy 57 13.9 51 10.6 81 81 SW 8 13 29.81 1010 10 16 0.00 0.00

Powered by AerisWeather